Location: Lombard
(41.8800°N, 88.0080°W)
Time: 11:27:48
(UTC-06:00)

Altair - Visible Passes

Search period start: 07 February 2023 00:00
Search period end: 17 February 2023 00:00
Orbit: 1501 x 1683 km, 47.2° (Epoch: 06 February)

Date Brightness Start Highest point End Pass type
(mag) Time Alt. Az. Time Alt. Az. Time Alt. Az.
07 Feb 7.6 19:01:24 10° WSW 19:11:04 80° NNW 19:16:42 31° ENE visible
07 Feb 8.0 21:06:59 10° WNW 21:14:44 55° NW 21:14:44 55° NW visible
07 Feb 9.7 23:12:13 10° WNW 23:12:45 12° WNW 23:12:45 12° WNW visible
08 Feb 7.6 18:36:13 10° WSW 18:45:49 82° NNW 18:52:58 22° ENE visible
08 Feb 7.7 20:41:44 10° W 20:51:00 64° NNW 20:51:00 64° NNW visible
08 Feb 9.4 22:47:00 10° WNW 22:49:01 18° WNW 22:49:01 18° WNW visible
09 Feb 7.6 18:11:01 10° WSW 18:20:35 85° NNW 18:29:14 15° ENE visible
09 Feb 7.6 20:16:28 10° W 20:26:10 64° N 20:27:15 61° NNE visible
09 Feb 9.0 22:21:46 10° WNW 22:25:16 26° WNW 22:25:16 26° WNW visible
10 Feb 7.6 17:45:49 10° WSW 17:55:22 89° NNW 18:05:19 10° ENE visible
10 Feb 7.7 19:51:14 10° W 20:00:52 64° N 20:03:29 50° NE visible
10 Feb 8.7 21:56:33 10° WNW 22:01:30 35° WNW 22:01:30 35° WNW visible
11 Feb 7.7 19:25:58 10° W 19:35:34 65° N 19:39:43 39° ENE visible
11 Feb 8.2 21:31:21 10° WNW 21:37:45 47° WNW 21:37:45 47° WNW visible
12 Feb 7.7 19:00:43 10° W 19:10:17 65° N 19:15:57 29° ENE visible
12 Feb 7.8 21:06:08 10° WNW 21:13:58 61° NW 21:13:58 61° NW visible
12 Feb 9.6 23:11:09 10° WNW 23:12:00 13° WNW 23:12:00 13° WNW visible
13 Feb 7.7 18:35:28 10° W 18:44:59 66° N 18:52:10 21° ENE visible
13 Feb 7.5 20:40:55 10° WNW 20:50:12 74° N 20:50:12 74° N visible
13 Feb 9.3 22:45:54 10° WNW 22:48:14 19° WNW 22:48:14 19° WNW visible
14 Feb 7.8 18:10:12 10° W 18:19:43 67° N 18:28:25 14° ENE visible
14 Feb 7.5 20:15:41 10° WNW 20:25:28 73° NNE 20:26:27 69° NE visible
14 Feb 9.0 22:20:40 10° WNW 22:24:28 27° WNW 22:24:28 27° WNW visible
15 Feb 7.8 17:44:57 10° W 17:54:26 68° N 18:04:19 10° ENE visible
15 Feb 7.6 19:50:28 10° WNW 20:00:11 72° NNE 20:02:42 54° ENE visible
15 Feb 8.6 21:55:26 10° WNW 22:00:44 36° WNW 22:00:44 36° WNW visible
16 Feb 7.6 19:25:15 10° WNW 19:34:55 70° NNE 19:38:58 41° E visible
16 Feb 8.2 21:30:13 10° WNW 21:37:00 49° W 21:37:00 49° W visible
